Temp
62 62 62 62 62 62 62 62 62 62 62 62 62 62 62 62 62 68 74 84 85 79 81 88 86 86 85 81 86 83 68 67 75 75 75 81 77 84 84 77 82 82 77 78 82
62 61 62 62 62 62 62 62 62 62 62 62 61 62 62 62 66 69 82 82 81 79 89 87 86 87 78 80 82 74 65 72 81 83 80 83 82 80 77 77 74 76 80 82 81
61 61 61 62 62 62 62 62 62 61 61 61 61 62 62 63 68 77 83 84 80 80 89 89 89 85 77 78 79 77 74 82 86 87 87 82 82 82 75 70 73 71 75 79 79
61 61 61 61 61 61 62 62 61 61 61 61 62 62 63 63 66 90 82 80 80 86 87 86 84 78 75 75 84 79 83 87 87 87 86 81 83 79 78 76 80 80 80 79 78
60 60 60 60 60 61 61 61 61 60 60 61 63 62 59 62 73 89 82 81 84 86 85 83 79 78 75 79 83 79 83 89 88 89 87 87 82 80 78 81 82 82 81 78 78
60 59 59 60 60 60 60 60 60 60 61 61 63 63 62 64 90 88 85 84 86 85 83 84 84 84 80 80 78 85 87 87 88 88 86 81 80 80 80 82 81 81 80 80 80
59 59 59 59 59 60 60 59 60 60 61 62 64 66 67 74 92 86 85 82 83 83 82 87 87 80 81 80 86 86 80 82 84 83 82 84 74 75 82 84 80 80 81 81 81
59 59 59 59 59 59 59 59 59 61 61 63 65 63 64 87 87 89 82 80 84 82 86 89 86 81 80 85 83 77 74 67 78 84 84 76 63 77 83 81 79 82 82 82 80
59 59 59 58 58 58 58 58 60 63 63 66 59 59 67 87 85 88 87 85 84 84 85 97 84 79 78 71 66 68 64 67 71 84 80 75 66 78 83 81 78 80 82 82 80
58 58 58 58 58 57 57 58 61 63 64 71 75 65 74 82 87 89 88 91 85 82 84 82 76 69 69 65 57 62 66 68 71 78 77 72 70 78 81 80 79 80 80 81 80
58 58 58 57 57 57 54 54 64 63 63 70 70 74 83 88 92 87 91 88 83 78 69 75 68 64 70 71 74 73 71 72 78 81 73 71 73 76 80 80 79 79 78 80 80
58 58 57 57 57 57 50 56 67 69 64 75 78 79 87 87 82 88 90 80 77 70 71 69 64 75 78 78 76 74 71 72 78 82 74 71 73 77 79 79 81 80 79 80 80
58 57 57 56 56 55 57 66 75 70 60 73 79 78 79 82 80 83 84 80 74 70 70 64 71 81 79 77 75 72 67 71 74 78 74 72 65 70 77 81 82 83 83 82 81
57 57 56 55 57 52 60 71 73 72 54 65 72 80 83 84 77 92 89 83 76 71 71 68 80 79 76 75 75 61 81 79 77 70 60 71 54 64 73 74 79 81 81 82 82
57 57 56 56 45 51 68 66 73 69 44 74 74 89 85 78 82 83 92 80 75 74 71 69 74 73 74 77 78 73 81 78 76 67 62 65 58 67 71 69 75 80 82 83 84
57 56 56 52 47 54 62 63 65 56 46 69 79 75 75 77 81 84 85 84 84 74 72 74 81 78 80 84 84 85 78 71 64 60 54 63 61 58 65 73 77 82 83 84 84
56 55 53 57 50 59 60 62 52 45 69 66 69 71 75 71 76 79 77 74 66 60 61 69 75 80 84 74 79 74 63 53 53 53 53 60 59 63 75 80 81 81 81 82 85
55 54 53 57 55 55 54 54 42 59 63 71 72 70 69 72 73 77 71 70 75 66 58 60 60 75 82 77 73 69 64 54 49 49 57 64 60 71 77 87 85 85 85 83 84
54 47 51 56 60 56 54 43 52 57 70 70 72 65 66 71 73 75 68 72 75 70 61 56 61 78 82 83 80 69 62 68 59 52 54 57 66 74 75 77 81 82 82 82 84
47 43 49 64 64 56 48 47 54 67 71 69 59 64 59 66 66 69 69 75 76 79 71 64 58 71 83 81 78 76 75 60 55 49 46 55 58 59 67 71 74 77 80 82 84
43 44 59 66 65 51 45 47 60 70 69 63 62 62 63 62 63 63 68 77 82 79 78 73 60 67 71 68 70 68 62 61 60 55 51 49 55 67 71 72 74 75 76 80 78
41 39 61 68 48 48 45 55 61 66 69 65 66 65 63 65 63 64 68 75 85 84 73 71 60 62 69 76 78 75 69 64 56 55 52 53 57 72 73 75 76 76 77 75 76
39 39 59 60 44 46 52 61 65 63 64 62 64 68 67 62 58 67 73 81 81 83 77 75 59 55 62 66 69 68 70 64 59 55 53 53 57 72 72 74 76 74 76 76 77
38 36 49 52 50 49 48 55 59 70 67 69 67 69 66 65 64 63 70 80 81 80 77 80 63 64 62 61 66 64 72 69 63 54 55 57 61 66 70 71 72 74 76 75 74
39 38 44 38 44 46 46 53 54 56 65 66 60 65 65 57 61 61 68 73 78 76 73 74 61 61 71 74 72 71 73 72 65 63 60 65 64 71 70 71 74 74 73 76 73
35 37 42 42 45 46 46 48 55 59 59 59 59 66 66 60 64 65 64 63 68 67 65 68 60 64 68 74 72 71 75 74 73 67 65 67 64 76 71 71 71 74 74 73 74
49 50 47 41 41 42 45 50 53 54 58 63 62 62 64 68 72 73 71 72 71 65 65 65 64 61 64 68 69 61 71 73 72 73 72 63 70 71 69 74 72 71 76 74 75
MSLP
1018.19 1017.66 1017.30 1016.98 1016.58 1016.21 1015.79 1015.40 1015.00 1014.50 1013.91 1013.36 1012.96 1012.59 1012.16 1011.75 1010.92 1010.50 1009.31 1006.64 1006.47 1006.58 1006.88 1006.86 1006.60 1006.36 1007.34 1007.64 1007.07 1007.11 1007.86 1007.67 1007.38 1007.12 1007.57 1008.20 1008.65 1009.84 1010.16 1011.24 1011.67 1012.01 1013.12 1014.18 1014.84
1018.62 1017.91 1017.24 1016.77 1016.36 1015.96 1015.60 1015.24 1014.82 1014.38 1013.90 1013.39 1012.94 1012.57 1012.26 1011.95 1011.34 1009.55 1006.34 1005.86 1006.04 1006.46 1006.57 1006.52 1006.01 1006.18 1006.58 1006.39 1006.34 1006.64 1007.24 1006.52 1006.02 1005.99 1006.65 1007.46 1007.78 1008.98 1010.48 1011.56 1012.42 1012.86 1013.86 1014.46 1014.96
1018.76 1018.23 1017.54 1016.81 1016.22 1015.72 1015.34 1014.94 1014.55 1014.22 1013.76 1013.29 1012.89 1012.57 1012.23 1011.98 1010.93 1006.96 1004.64 1004.94 1005.76 1006.22 1006.24 1006.30 1006.09 1006.35 1006.12 1005.59 1005.54 1005.23 1005.10 1004.71 1005.28 1005.26 1005.86 1007.06 1008.11 1008.99 1010.38 1012.24 1012.11 1012.54 1013.53 1014.35 1014.97
1018.70 1018.24 1017.73 1017.00 1016.28 1015.60 1015.02 1014.68 1014.30 1013.89 1013.51 1013.14 1012.76 1012.48 1012.24 1011.98 1009.22 1004.90 1004.37 1004.51 1005.56 1006.06 1006.18 1006.15 1006.24 1006.16 1005.86 1005.57 1004.99 1004.99 1004.04 1003.85 1004.88 1005.11 1006.07 1007.09 1008.36 1009.73 1009.77 1011.26 1012.18 1012.83 1013.38 1013.99 1014.70
1018.74 1018.14 1017.60 1017.08 1016.31 1015.60 1014.90 1014.33 1013.97 1013.62 1013.19 1012.79 1012.50 1012.38 1012.26 1010.99 1007.44 1004.38 1004.48 1004.85 1005.63 1006.06 1006.09 1006.21 1006.35 1006.04 1005.99 1005.32 1004.82 1004.21 1003.66 1004.05 1004.50 1005.01 1005.92 1006.98 1007.97 1009.00 1010.42 1011.50 1012.21 1012.99 1013.58 1014.03 1014.43
1018.75 1018.14 1017.44 1016.84 1016.25 1015.46 1014.72 1014.04 1013.51 1013.25 1012.89 1012.49 1012.20 1012.28 1011.76 1009.40 1004.68 1004.24 1004.69 1005.26 1005.37 1005.90 1005.91 1006.00 1005.90 1005.85 1005.85 1005.41 1005.30 1004.50 1003.58 1004.39 1004.77 1005.35 1005.99 1006.90 1008.42 1008.88 1010.83 1011.36 1012.34 1012.90 1013.32 1013.65 1013.98
1018.62 1018.04 1017.36 1016.61 1015.92 1015.32 1014.46 1013.66 1013.02 1012.69 1012.37 1012.15 1012.00 1012.01 1010.82 1006.63 1004.39 1004.34 1004.60 1004.98 1005.16 1005.42 1005.66 1005.53 1005.55 1006.07 1005.73 1005.20 1004.32 1004.62 1004.42 1005.05 1005.13 1005.63 1006.94 1007.38 1009.29 1009.60 1010.00 1010.61 1011.56 1012.43 1012.82 1013.10 1013.27
1018.49 1017.82 1017.20 1016.48 1015.63 1014.86 1014.20 1013.22 1012.27 1011.96 1011.81 1011.70 1011.70 1011.55 1008.98 1004.62 1004.62 1004.78 1004.86 1004.76 1004.88 1005.22 1005.26 1004.95 1005.43 1005.86 1005.92 1005.14 1004.75 1004.67 1004.54 1006.00 1006.10 1005.76 1006.76 1006.81 1009.48 1009.98 1010.08 1010.28 1011.00 1011.53 1012.25 1012.44 1012.80
1018.48 1017.70 1016.92 1016.22 1015.46 1014.54 1013.64 1012.67 1011.59 1011.08 1011.34 1011.42 1011.46 1010.85 1007.47 1004.06 1004.37 1003.79 1004.24 1004.39 1004.65 1004.96 1004.93 1004.84 1005.30 1005.57 1005.42 1005.88 1006.12 1005.58 1005.74 1005.86 1006.70 1005.39 1005.96 1006.85 1009.22 1009.81 1009.85 1009.82 1010.60 1011.00 1011.24 1011.77 1012.31
1018.48 1017.60 1016.70 1015.87 1015.14 1014.35 1013.27 1011.84 1011.16 1011.00 1011.16 1011.02 1010.47 1010.05 1006.27 1003.98 1003.04 1003.22 1003.62 1003.84 1004.43 1004.71 1005.09 1005.12 1005.23 1005.58 1005.96 1006.56 1006.79 1006.32 1005.96 1005.72 1005.72 1005.84 1005.94 1007.06 1008.07 1008.90 1009.22 1009.43 1010.00 1010.57 1011.07 1011.34 1011.74
1018.34 1017.55 1016.57 1015.54 1014.68 1014.19 1013.32 1011.96 1011.37 1011.04 1010.54 1009.07 1007.95 1006.74 1004.70 1003.44 1002.64 1003.18 1003.26 1003.90 1004.26 1004.76 1005.20 1004.97 1005.66 1005.76 1005.67 1006.06 1005.89 1005.88 1005.88 1005.53 1004.78 1005.00 1006.13 1006.77 1007.73 1008.21 1008.64 1009.29 1009.56 1010.06 1010.42 1010.86 1011.20
1018.14 1017.41 1016.45 1015.27 1014.12 1013.52 1013.55 1012.63 1010.46 1010.83 1009.37 1007.22 1006.34 1005.48 1004.12 1003.98 1003.70 1002.94 1003.06 1004.12 1004.57 1005.10 1005.34 1005.80 1005.52 1004.95 1005.17 1005.46 1005.76 1005.64 1005.53 1004.89 1004.46 1004.46 1005.72 1007.00 1007.47 1007.91 1008.15 1008.21 1008.32 1008.96 1009.53 1009.90 1010.62
1018.00 1017.26 1016.36 1014.99 1013.46 1013.11 1012.93 1011.28 1009.50 1009.75 1009.06 1005.87 1004.62 1003.88 1002.95 1003.32 1003.19 1002.58 1002.89 1003.63 1004.30 1005.13 1005.40 1005.60 1004.63 1004.56 1004.94 1004.80 1005.13 1004.88 1004.91 1004.08 1003.84 1004.60 1005.70 1007.14 1008.61 1008.48 1008.23 1008.42 1008.36 1008.54 1008.69 1009.38 1009.64
1017.86 1017.16 1016.46 1015.22 1013.12 1013.72 1011.79 1009.76 1009.39 1009.65 1008.65 1005.21 1002.96 1001.26 1001.74 1002.24 1002.21 1001.67 1001.98 1003.27 1004.05 1004.54 1005.42 1005.43 1004.39 1004.52 1004.45 1004.44 1004.25 1004.33 1003.00 1003.58 1003.45 1004.63 1006.14 1006.51 1008.46 1008.36 1007.87 1007.96 1007.97 1008.04 1008.27 1008.81 1009.20
1017.66 1017.00 1016.44 1016.69 1015.80 1014.08 1010.57 1009.92 1009.10 1008.77 1008.01 1002.99 1001.01 999.08 999.85 1001.33 1000.62 1000.65 1001.21 1002.43 1003.37 1004.00 1004.91 1004.33 1003.99 1003.92 1004.02 1003.25 1003.25 1003.40 1002.81 1003.02 1003.76 1004.93 1005.89 1006.92 1007.39 1006.52 1007.59 1007.98 1007.07 1006.98 1007.36 1007.80 1008.12
1017.36 1016.66 1016.34 1015.80 1015.62 1012.42 1011.05 1010.38 1009.32 1009.18 1006.71 1002.58 1000.02 999.56 1000.02 1000.68 1000.54 1000.72 1001.31 1001.92 1002.41 1003.81 1004.11 1003.91 1003.15 1003.12 1002.53 1002.09 1002.14 1002.26 1002.78 1003.34 1004.65 1005.92 1006.99 1006.47 1006.98 1006.82 1006.20 1005.20 1005.40 1005.83 1006.30 1006.74 1007.35
1016.73 1015.92 1015.80 1015.31 1013.20 1011.39 1011.20 1010.84 1010.42 1007.87 1004.65 1001.99 1000.42 1000.05 999.96 1000.52 1000.76 1000.94 1001.44 1002.14 1002.71 1003.98 1004.39 1003.94 1003.06 1002.44 1002.07 1002.40 1002.00 1002.18 1003.62 1005.04 1006.43 1006.91 1006.65 1005.82 1006.26 1005.13 1004.04 1003.48 1003.57 1004.23 1005.07 1005.84 1006.49
1015.90 1014.67 1012.82 1011.88 1011.17 1012.12 1012.26 1011.55 1009.58 1006.14 1004.24 1001.76 1001.02 1000.38 1000.38 1000.24 1000.54 1000.75 1001.43 1002.11 1002.54 1003.20 1004.22 1004.26 1002.92 1001.48 1001.07 1001.34 1001.46 1002.11 1003.62 1005.32 1006.79 1007.72 1006.76 1005.97 1005.21 1002.81 1001.88 1001.42 1002.06 1002.58 1003.52 1005.01 1005.82
1015.14 1013.66 1012.16 1008.86 1010.46 1011.26 1011.94 1010.48 1007.36 1005.75 1003.66 1002.61 1001.76 1001.36 1000.92 1000.57 1000.11 1000.65 1001.09 1001.46 1001.70 1002.43 1003.44 1003.60 1002.46 1000.73 1000.13 1000.18 1000.56 1001.83 1003.17 1003.95 1005.96 1007.25 1007.40 1006.10 1004.54 1002.77 1001.55 1001.36 1002.24 1002.98 1004.08 1004.56 1004.93
1015.55 1014.01 1010.74 1007.97 1009.38 1010.38 1010.90 1008.62 1006.56 1004.71 1003.60 1002.93 1002.75 1002.19 1001.71 1001.41 1001.30 1000.58 1000.67 1000.22 1000.69 1001.16 1001.75 1002.62 1002.41 1000.87 1000.03 1000.00 1000.09 1000.36 1001.80 1004.18 1006.09 1007.23 1007.64 1006.46 1005.22 1004.38 1002.82 1002.52 1002.60 1003.09 1003.47 1003.95 1004.42
1015.72 1014.05 1008.45 1007.39 1008.66 1009.74 1008.98 1008.04 1006.18 1004.39 1004.04 1003.38 1002.93 1002.61 1002.18 1002.16 1001.90 1001.46 1000.02 999.03 999.16 999.92 1000.80 1001.60 1002.41 1001.18 1000.80 1000.26 1000.36 1001.02 1001.83 1003.56 1005.30 1006.36 1007.11 1006.79 1005.56 1003.15 1002.80 1002.38 1002.83 1003.32 1003.24 1003.62 1004.10
1016.54 1014.04 1008.43 1008.50 1008.97 1008.96 1008.05 1006.88 1005.79 1004.31 1003.64 1003.51 1002.91 1002.61 1002.41 1002.11 1001.68 1001.27 1000.06 998.81 997.42 998.08 999.77 1000.64 1001.56 1002.04 1000.71 999.92 1000.10 1000.03 1001.03 1002.58 1004.99 1006.26 1006.48 1006.04 1004.48 1002.72 1002.34 1002.28 1002.37 1003.01 1003.38 1003.80 1004.26
1017.20 1014.01 1008.78 1008.19 1008.84 1008.76 1007.62 1006.25 1005.45 1004.47 1003.91 1003.44 1002.73 1002.22 1002.18 1002.19 1002.29 1000.60 999.38 997.38 997.30 997.28 997.88 999.46 1000.81 1001.42 1000.93 1000.50 999.87 1000.14 1000.62 1001.38 1002.92 1004.54 1005.52 1005.77 1004.17 1002.56 1002.88 1002.78 1002.54 1003.15 1003.66 1003.58 1003.82
1017.75 1015.00 1010.66 1009.23 1009.13 1008.80 1008.45 1006.49 1005.20 1004.18 1003.61 1003.15 1002.71 1002.61 1002.46 1001.62 1001.64 1000.65 999.36 997.69 996.74 996.76 997.18 997.40 999.05 999.95 1000.08 1000.00 999.94 999.92 1000.00 1000.68 1001.70 1003.72 1004.39 1004.16 1003.57 1003.03 1003.18 1003.05 1003.38 1003.31 1003.20 1003.92 1004.39
1017.54 1015.44 1013.61 1012.41 1010.96 1010.40 1009.28 1007.60 1006.01 1004.76 1003.49 1002.78 1002.39 1001.86 1002.00 1001.47 1000.98 1000.30 999.26 997.95 996.66 996.34 996.73 997.75 998.14 998.92 998.77 998.75 999.12 999.08 999.15 999.57 1000.65 1001.16 1002.46 1002.57 1002.58 1002.16 1002.26 1002.54 1002.84 1002.98 1003.56 1004.27 1005.03
1017.55 1016.02 1014.76 1013.83 1011.96 1010.85 1009.04 1007.70 1006.54 1005.28 1004.32 1002.63 1002.09 1001.14 1001.08 1000.48 999.96 998.98 998.82 997.94 996.94 996.55 996.72 997.04 997.96 998.18 998.58 998.28 998.22 998.41 998.15 998.57 999.05 999.66 1000.19 1000.75 1001.47 1000.79 1001.44 1002.14 1002.82 1003.12 1003.68 1004.40 1004.82
1016.62 1015.90 1015.55 1013.90 1012.73 1011.68 1009.74 1008.98 1007.72 1006.78 1004.34 1003.30 1002.47 1001.09 999.61 998.40 998.52 997.79 997.62 997.21 996.71 996.64 997.04 997.54 997.99 998.79 998.30 998.06 997.94 998.06 997.27 997.37 997.83 998.34 999.00 999.99 999.91 1000.56 1002.08 1002.46 1002.78 1003.05 1003.23 1004.02 1004.52
Wind_Speed
21 20 20 19 18 18 18 17 17 17 17 17 15 14 14 14 16 2 8 11 6 5 5 2 6 6 8 7 5 4 3 5 8 15 10 12 19 10 12 19 4 4 16 16 16
20 21 22 21 20 19 18 18 18 17 17 16 15 13 11 10 3 9 11 13 7 8 4 2 8 7 3 4 4 6 6 12 8 13 16 18 22 16 13 13 16 19 15 17 15
21 21 22 22 22 21 19 18 18 18 17 16 14 11 10 6 4 11 9 24 7 9 2 1 6 3 4 2 3 4 7 7 9 12 21 19 18 12 22 13 21 23 22 19 18
22 22 22 23 23 23 22 20 19 18 17 14 12 9 7 2 5 3 8 12 13 6 1 2 3 3 5 4 3 7 4 10 11 11 23 16 18 14 13 11 20 19 21 20 18
23 23 23 23 24 24 24 23 20 18 16 13 10 6 2 0 12 4 6 11 9 6 4 4 0 2 5 6 10 5 6 16 13 17 16 19 13 13 16 19 20 19 19 19 18
23 23 23 24 23 23 24 23 21 18 16 12 6 1 2 4 7 7 8 8 5 6 5 6 6 3 6 5 3 8 10 17 14 18 17 23 19 12 17 22 21 20 19 19 19
23 23 23 24 25 24 24 24 23 20 14 9 3 4 2 15 3 6 9 7 4 6 5 6 5 2 4 9 3 8 8 18 21 11 14 19 10 10 20 22 25 21 19 16 16
24 24 24 24 25 25 24 26 26 20 9 8 5 2 9 6 8 3 3 2 5 5 7 7 2 4 5 6 10 5 7 7 5 24 16 5 5 17 20 21 18 17 19 15 10
24 25 25 25 25 26 26 28 25 10 5 4 2 2 12 12 7 11 9 5 5 5 6 9 1 7 1 4 6 7 5 3 4 9 9 5 7 17 19 20 17 17 15 13 11
24 26 27 27 26 25 27 26 10 2 3 5 4 4 6 5 3 7 8 7 5 2 4 4 2 2 3 6 4 2 2 5 9 9 3 7 8 22 21 20 19 16 11 14 15
24 26 28 29 28 24 15 6 4 2 2 9 7 6 7 3 0 4 7 6 1 3 4 3 4 7 10 9 6 4 4 9 7 12 5 9 14 23 20 17 17 16 12 15 16
25 26 28 30 31 29 3 1 3 5 11 12 17 14 16 4 6 8 8 7 7 7 3 4 8 11 6 6 7 7 8 15 13 20 9 9 19 16 20 21 21 20 17 19 14
25 26 27 31 36 2 3 8 6 7 4 9 11 9 8 10 10 11 12 6 5 7 6 8 9 6 7 10 8 11 7 10 11 13 9 10 3 8 10 13 16 17 17 16 19
24 25 26 32 5 7 6 7 13 7 4 9 8 11 7 9 7 13 13 9 4 13 5 7 12 10 9 12 7 7 15 9 4 8 8 8 6 9 15 14 17 18 17 17 18
24 24 24 16 7 5 7 14 20 3 4 8 7 6 11 11 5 10 13 4 12 7 8 11 9 8 12 18 6 14 9 7 4 5 6 5 5 11 13 14 19 21 20 20 21
24 25 23 5 2 13 12 14 3 6 10 7 3 10 9 8 4 8 14 5 7 5 3 11 5 8 14 15 15 12 4 8 6 5 1 8 7 4 14 28 23 22 22 22 20
26 28 20 5 8 1 5 5 4 7 5 7 5 7 18 9 9 6 18 16 8 7 10 6 13 9 6 7 6 4 8 4 5 4 8 4 4 11 20 20 29 28 25 21 19
29 30 9 9 11 5 1 5 8 9 13 4 6 2 14 9 9 11 10 15 14 5 5 8 9 10 7 13 13 7 11 8 6 4 7 6 7 16 13 25 26 29 29 19 18
27 4 6 5 13 5 5 5 10 6 6 5 10 3 6 3 7 15 11 19 16 13 10 7 9 6 5 7 12 6 4 10 7 2 4 4 7 8 4 7 14 20 18 17 19
7 5 7 5 15 6 5 8 7 5 7 2 1 3 5 5 6 14 12 13 15 16 8 6 3 7 16 4 5 10 8 2 4 5 4 5 4 6 5 8 9 13 18 18 18
2 6 6 11 8 4 7 8 6 16 3 3 5 6 5 2 2 6 9 11 24 18 16 14 5 10 2 5 10 2 1 5 6 6 8 3 8 8 12 11 13 10 10 16 13
4 4 3 5 2 4 4 7 3 13 6 4 4 8 8 3 6 6 11 17 20 21 16 11 8 11 18 12 5 6 12 9 7 6 2 6 9 6 10 11 10 9 9 9 10
5 7 8 4 5 5 6 8 10 8 7 5 6 5 2 4 5 9 13 8 5 22 19 11 6 3 11 7 4 6 7 6 6 5 8 8 8 1 5 9 8 12 10 9 8
3 6 6 4 4 4 4 7 14 11 17 17 13 13 13 18 9 8 12 8 4 5 16 20 7 13 17 10 6 5 10 7 9 6 6 7 6 4 8 9 7 9 9 10 7
2 6 3 5 7 9 3 5 6 6 6 8 5 17 17 8 7 8 9 13 5 4 5 14 11 9 15 16 9 8 13 12 8 9 9 9 11 16 14 14 12 8 8 11 8
3 3 5 8 9 6 4 3 4 14 7 12 8 14 14 17 15 17 6 6 8 2 2 3 8 12 17 17 12 7 9 8 10 4 4 8 7 10 7 7 8 11 11 10 10
2 4 3 5 6 5 4 10 19 13 12 9 13 15 14 19 11 18 12 11 9 5 4 4 6 7 18 10 10 5 11 9 6 6 10 8 12 10 7 12 13 11 14 11 9
Wind_Direction
357 355 353 352 349 346 344 342 340 337 332 328 325 324 324 324 310 256 246 226 190 144 134 214 232 221 154 197 214 140 37 270 165 137 148 140 131 144 105 139 170 98 134 141 139
358 352 349 347 345 343 341 340 339 337 333 328 323 321 320 333 307 264 238 241 238 150 180 228 285 1 333 223 193 140 148 224 194 141 136 145 133 129 130 119 106 110 119 140 140
357 353 347 344 341 339 338 337 336 336 333 327 321 316 314 319 320 250 217 220 169 181 233 304 294 348 275 299 211 211 209 152 147 138 130 128 128 123 121 138 145 144 148 151 152
353 351 347 342 339 336 335 334 332 333 330 325 317 308 319 254 244 255 325 204 159 184 242 315 357 309 284 336 300 350 199 112 129 110 121 129 131 138 122 151 147 150 150 154 161
350 347 344 342 337 333 330 328 326 328 326 320 312 291 277 116 251 256 75 128 135 153 201 193 120 239 313 332 349 302 107 123 126 126 125 138 132 121 118 140 145 152 155 163 169
346 343 340 338 336 330 327 323 320 321 319 310 300 233 208 251 244 158 125 133 166 164 193 184 212 171 274 276 349 283 122 124 110 112 116 113 120 118 139 146 151 161 174 178 176
343 341 338 335 333 331 325 320 315 316 307 292 244 229 248 235 283 149 142 178 175 171 198 209 221 160 345 318 284 250 99 119 122 120 123 111 108 142 150 152 157 167 176 186 186
340 338 336 334 330 327 324 317 312 309 290 267 183 235 249 241 216 174 225 220 198 217 204 252 141 240 191 260 344 312 64 125 241 136 166 94 167 154 158 157 165 171 179 192 185
338 335 333 332 329 326 322 314 310 300 205 178 171 171 267 302 169 210 164 193 191 232 250 266 190 210 313 72 356 1 151 132 144 186 138 104 139 177 171 164 170 181 187 182 174
337 333 331 329 327 326 322 310 280 28 173 200 251 342 272 258 219 160 198 162 181 163 338 203 142 71 32 79 233 262 298 179 171 210 147 129 176 170 177 170 174 184 189 181 176
336 333 329 327 324 324 338 353 10 37 272 207 200 248 290 248 111 183 180 141 246 106 173 283 76 227 229 183 214 243 263 285 233 176 111 172 159 176 181 175 175 189 183 186 185
336 333 330 326 322 321 113 229 221 117 299 234 245 243 263 354 313 214 120 158 142 191 148 355 236 230 248 262 242 257 265 270 269 164 117 182 176 173 182 187 184 188 188 186 181
333 333 331 327 319 352 225 243 306 330 235 276 206 223 219 159 212 227 148 176 148 167 189 187 238 239 239 270 268 261 223 257 203 155 36 113 42 192 214 193 195 203 193 192 182
330 332 333 335 10 324 270 288 334 295 25 270 233 239 179 174 265 200 179 153 211 192 185 223 252 247 256 255 225 261 254 252 139 118 165 172 223 213 207 200 200 202 193 195 193
326 328 328 335 286 308 274 339 320 100 322 248 227 206 161 159 180 192 173 131 200 174 135 230 195 204 232 244 219 245 276 232 155 169 94 221 90 237 155 204 212 203 199 201 198
323 320 328 330 241 246 310 300 4 56 241 279 207 172 140 166 251 145 173 159 182 188 242 228 240 174 219 238 239 240 281 31 62 100 105 215 150 249 174 201 209 201 199 204 197
320 314 309 258 234 211 343 18 54 190 246 244 215 168 184 174 216 183 179 193 162 167 227 303 261 247 202 225 263 142 63 344 349 360 224 175 107 221 208 204 199 195 197 203 199
319 310 254 207 227 264 325 65 204 200 232 318 12 82 182 160 221 196 164 199 213 124 145 196 289 213 214 194 200 187 148 156 196 209 247 62 252 265 206 201 196 196 197 196 195
322 301 265 231 185 134 100 192 202 217 203 350 347 256 245 215 170 193 185 203 205 177 168 167 255 281 207 202 163 214 132 193 141 350 63 265 295 312 87 155 185 196 192 196 195
317 304 265 183 157 111 106 227 209 221 340 42 274 266 48 18 294 185 194 198 208 200 159 221 263 237 257 182 250 172 168 95 1 171 242 287 267 237 304 127 150 178 193 194 202
6 330 269 141 139 83 198 224 224 268 298 281 207 236 263 281 198 302 256 217 196 204 188 198 131 273 72 202 194 19 124 73 119 138 169 237 267 224 194 169 158 173 177 179 185
349 319 203 132 26 205 185 181 232 267 289 291 290 230 234 234 272 269 256 262 198 192 193 199 172 230 247 250 212 219 185 150 142 245 174 158 266 276 189 170 143 146 149 172 180
310 262 293 109 214 253 265 212 227 257 246 266 242 234 9 279 287 225 275 273 224 195 195 188 218 222 289 313 353 199 211 153 124 90 186 144 256 86 172 167 164 148 156 142 145
315 314 309 37 334 348 349 271 243 237 247 244 252 263 272 272 210 269 277 267 217 168 227 178 176 192 221 220 179 195 216 174 138 134 185 202 192 184 214 161 168 160 137 114 100
231 257 331 336 327 319 237 258 297 303 263 262 281 244 243 255 268 241 254 274 260 265 241 170 189 178 215 213 192 215 219 188 172 186 157 216 177 198 191 172 181 157 133 121 124
256 10 348 293 284 319 294 270 10 340 329 306 271 259 263 232 204 263 216 243 236 292 16 248 229 189 220 217 189 210 207 232 219 154 172 154 218 202 188 123 142 154 136 132 128
295 333 302 279 314 352 266 3 325 353 299 308 303 313 262 253 234 228 212 244 223 199 199 170 188 198 214 215 214 206 210 208 229 197 171 173 215 150 150 171 160 155 140 142 129